Terug naar catalogus

SL-12 R/B

AUX MOTOR

ActiefHEO
NORAD 32399·ROCKET BODY·🇷🇺 Russia

Gelanceerd Dec 25, 2007 vanaf Baikonur Cosmodrome

Loading…

Volgende Passages (komende 24 uur)

TLE

VersSource: Space-Track

Epoch: Sep 10, 2026, 21:47 UTC

1 32399U 07065G   26253.90795983  .00000035  00000-0  17682-3 0  9997
2 32399  65.1953 107.8012 5618920 247.8626  45.2159  4.25007830289590

Volg SL-12 R/B in realtime met AllMySat

Download on the App Store